Satellite-Ground Cal/Val Site Overpasses Predictions

Prediction of Satellite NPP Overpassing Cal/Val Site: Antarctic Dome C

Ground Cal/Val Site Location: Latitude: -75.10, Longitude: 123.35; Satellite-Ground Site NADIR distance within 100 km.

Table of predicted overpasses for the next 14.0 days since TLE Epoch: 6/29/2018
Interval Starting Time Ending Time Minimum Distance Time Minimum Distance (km)
1 06/30/2018 15:01:04 06/30/2018 15:01:28 06/30/2018 15:01:16 57.42
2 07/01/2018 14:42:13 07/01/2018 14:42:38 07/01/2018 14:42:25 51.74
3 07/02/2018 07:43:54 07/02/2018 07:44:15 07/02/2018 07:44:04 68.22
4 07/03/2018 07:25:01 07/03/2018 07:25:28 07/03/2018 07:25:14 39.91
5 07/05/2018 15:07:26 07/05/2018 15:07:35 07/05/2018 15:07:31 94.88
6 07/06/2018 14:48:27 07/06/2018 14:48:56 07/06/2018 14:48:41 16.26
7 07/08/2018 07:31:16 07/08/2018 07:31:45 07/08/2018 07:31:30 3.60
8 07/11/2018 14:54:41 07/11/2018 14:55:10 07/11/2018 14:54:56 19.93
9 07/12/2018 14:36:00 07/12/2018 14:36:14 07/12/2018 14:36:07 86.99


NCC Satellite Cal/Val Overpasses Prediction Service
